Batman, Turkey

4:15 PM +03 on April 25, 2017 (GMT +0300)
Batman Air Base

Weather History for LTCJ - October, 2012

Change the Weather History Date:

Saturday, October 13, 2012

  Actual Average (LTCC) Record (LTCC)
Temperature  
Mean Temperature 64 °F -  
Max Temperature 80 °F 79 °F 89 °F (2002)
Min Temperature 48 °F 53 °F 44 °F (1998)
Degree Days  
Heating Degree Days 1    
Growing Degree Days 14 (Base 50)    
Moisture  
Dew Point 44 °F    
Average Humidity 55    
Maximum Humidity 87    
Minimum Humidity 23    
Precipitation  
Precipitation 0.00 in - - ()
Sea Level Pressure  
Sea Level Pressure 30.06 in    
Wind  
Wind Speed 2 mph ()    
Max Wind Speed 6 mph    
Max Gust Speed -    
Visibility 6.2 miles    
Events      
Averages and records for this station are not official NWS values.
T = Trace of Precipitation, MM = Missing Value Source: Averaged Metar Reports

Daily Weather History Graph

Daily Weather History Graph

Search for Another Location

Airport or City:

Trip Planner

Search our weather history database for the weather conditions in past years. The results will help you decide how hot, cold, wet, or windy it might be!

Date:

Astronomy

Oct. 13, 2012 Rise Set
Actual Time 6:22 AM EEST 5:40 PM EEST
Civil Twilight 5:55 AM EEST 6:06 PM EEST
Nautical Twilight 5:25 AM EEST 6:37 PM EEST
Astronomical Twilight 4:54 AM EEST 7:07 PM EEST
Moon 3:49 AM EEST (10/13) 4:10 PM EEST (10/13)
Length of Visible Light 12h 11m
Length of Day
11h 18m
Waning Crescent, 6% of the Moon is Illuminated
Oct 13
Waning Crescent
Oct 15
New
Oct 22
First Quarter
Oct 29
Full
Nov 7
Last Quarter

Hourly Weather History & Observations

Time (EEST) Temp. Dew Point Humidity Pressure Visibility Wind Dir Wind Speed Gust Speed Precip Events Conditions
12:20 AM 59.0 °F 46.4 °F 63% 30.04 in - Variable 1.2 mph - N/A   Clear
12:50 AM 57.2 °F 44.6 °F 63% 30.06 in - Variable 2.3 mph - N/A   Clear
1:20 AM 57.2 °F 44.6 °F 63% 30.06 in - Variable 2.3 mph - N/A   Clear
1:50 AM 55.4 °F 44.6 °F 67% 30.06 in - Variable 1.2 mph - N/A   Clear
2:20 AM 55.4 °F 46.4 °F 72% 30.06 in - West 1.2 mph - N/A   Clear
3:20 AM 53.6 °F 44.6 °F 72% 30.06 in - Calm Calm - N/A   Clear
3:50 AM 51.8 °F 44.6 °F 76% 30.06 in - NNE 2.3 mph - N/A   Clear
4:20 AM 50.0 °F 44.6 °F 82% 30.06 in - NNE 5.8 mph - N/A   Clear
4:50 AM 48.2 °F 44.6 °F 87% 30.06 in - NNE 4.6 mph - N/A   Clear
5:50 AM 48.2 °F 44.6 °F 87% 30.06 in - NNE 4.6 mph - N/A   Clear
6:20 AM 50.0 °F 44.6 °F 82% 30.09 in - NNE 4.6 mph - N/A   Clear
6:50 AM 48.2 °F 44.6 °F 87% 30.09 in - NNE 5.8 mph - N/A   Clear
7:20 AM 51.8 °F 46.4 °F 82% 30.09 in - NE 4.6 mph - N/A   Clear
7:50 AM 53.6 °F 46.4 °F 77% 30.09 in - Variable 3.5 mph - N/A   Clear
8:20 AM 59.0 °F 46.4 °F 63% 30.09 in - Variable 1.2 mph - N/A   Clear
8:50 AM 60.8 °F 46.4 °F 59% 30.12 in - Variable 1.2 mph - N/A   Clear
9:20 AM 62.6 °F 44.6 °F 52% 30.12 in - SW 3.5 mph - N/A   Clear
10:20 AM 68.0 °F 42.8 °F 40% 30.12 in - WSW 3.5 mph - N/A   Clear
10:50 AM 69.8 °F 42.8 °F 38% 30.09 in - SW 4.6 mph - N/A   Clear
11:20 AM 73.4 °F 42.8 °F 33% 30.09 in - Variable 3.5 mph - N/A   Clear
11:50 AM 75.2 °F 42.8 °F 31% 30.09 in - Variable 2.3 mph - N/A   Clear
12:20 PM 77.0 °F 42.8 °F 29% 30.06 in - NE 3.5 mph - N/A   Clear
12:50 PM 77.0 °F 41.0 °F 28% 30.06 in - Variable 3.5 mph - N/A   Clear
1:20 PM 78.8 °F 41.0 °F 26% 30.06 in - NNW 3.5 mph - N/A   Clear
1:50 PM 78.8 °F 41.0 °F 26% 30.06 in - North 3.5 mph - N/A   Clear
2:20 PM 80.6 °F 39.2 °F 23% 30.04 in - NE 4.6 mph - N/A   Clear
3:20 PM 78.8 °F 37.4 °F 23% 30.04 in 6.2 mi Variable 2.3 mph - N/A   Mostly Cloudy
3:50 PM 78.8 °F 37.4 °F 23% 30.04 in 6.2 mi NE 2.3 mph - N/A   Mostly Cloudy
4:50 PM 78.8 °F 39.2 °F 24% 30.04 in 6.2 mi SSW 2.3 mph - N/A   Mostly Cloudy
5:20 PM 77.0 °F 41.0 °F 28% 30.04 in 6.2 mi SSW 1.2 mph - N/A   Mostly Cloudy
5:50 PM 73.4 °F 42.8 °F 33% 30.04 in - Calm Calm - N/A   Clear
6:50 PM 66.2 °F 44.6 °F 46% 30.04 in - NNE 3.5 mph - N/A   Clear
7:20 PM 62.6 °F 48.2 °F 59% 30.04 in - East 3.5 mph - N/A   Clear
7:50 PM 62.6 °F 46.4 °F 55% 30.04 in - Calm Calm - N/A   Clear
8:20 PM 62.6 °F 46.4 °F 55% 30.04 in - Calm Calm - N/A   Clear
8:50 PM 59.0 °F 44.6 °F 59% 30.04 in - NNE 3.5 mph - N/A   Clear
9:20 PM 59.0 °F 44.6 °F 59% 30.04 in - ENE 3.5 mph - N/A   Clear
9:50 PM 59.0 °F 44.6 °F 59% 30.04 in - North 2.3 mph - N/A   Clear
10:20 PM 57.2 °F 44.6 °F 63% 30.04 in - NNE 3.5 mph - N/A   Clear
10:50 PM 57.2 °F 44.6 °F 63% 30.06 in - NNE 4.6 mph - N/A   Clear
11:20 PM 55.4 °F 44.6 °F 67% 30.06 in - NE 4.6 mph - N/A   Clear
11:50 PM 53.6 °F 44.6 °F 72% 30.06 in - NNE 4.6 mph - N/A   Clear